This is the latest recevied weather packets stored in our database for station/object N0NPO. If no packets are shown the sender has not sent any weather packets the latest 10 day(s).
| Time | Temp. | Humidity | Pressure | Rain* | Wind** | Luminosity | Snow |
|---|---|---|---|---|---|---|---|
| 1777731386 | 8.33° C | 1% | 1021.7 hPa | 0 mm | - | 262 W/m² | - |
| 1777731084 | 7.78° C | 1% | 1021.7 hPa | 0 mm | - | 265 W/m² | - |
| 1777730782 | 7.78° C | 1% | 1021.8 hPa | 0 mm | - | 256 W/m² | - |
| 1777730478 | 7.22° C | 1% | 1021.8 hPa | 0 mm | - | 228 W/m² | - |
| 1777730174 | 6.67° C | 1% | 1021.8 hPa | 0 mm | - | 215 W/m² | - |
| 1777729871 | 6.67° C | 1% | 1021.7 hPa | 0 mm | - | 204 W/m² | - |
| 1777729567 | 6.67° C | 1% | 1021.8 hPa | 0 mm | - | 276 W/m² | - |
| 1777729264 | 6.11° C | 1% | 1021.6 hPa | 0 mm | - | 135 W/m² | - |
| 1777728961 | 6.11° C | 1% | 1021.6 hPa | 0 mm | - | 218 W/m² | - |
| 1777728658 | 6.11° C | 1% | 1021.7 hPa | 0 mm | - | 213 W/m² | - |
| 1777728355 | 5.56° C | 1% | 1021.7 hPa | 0 mm | - | 160 W/m² | - |
| 1777728052 | 5° C | 1% | 1022 hPa | 0 mm | - | 168 W/m² | - |
| 1777727748 | 5° C | 1% | 1022.1 hPa | 0 mm | - | 157 W/m² | - |
| 1777727446 | 4.44° C | 1% | 1021.9 hPa | 0 mm | - | 148 W/m² | - |
| 1777727143 | 3.89° C | 1% | 1021.9 hPa | 0 mm | - | 128 W/m² | - |
| 1777726841 | 3.33° C | 1% | 1021.6 hPa | 0 mm | - | 109 W/m² | - |
| 1777726537 | 3.33° C | 1% | 1021.8 hPa | 0 mm | - | 99 W/m² | - |
| 1777726235 | 3.33° C | 1% | 1022 hPa | 0 mm | - | 91 W/m² | - |
| 1777725931 | 2.78° C | 1% | 1022.1 hPa | 0 mm | - | 82 W/m² | - |
| 1777725628 | 2.78° C | 1% | 1022 hPa | 0 mm | - | 53 W/m² | - |
| 1777725326 | 2.78° C | 1% | 1021.9 hPa | 0 mm | - | 43 W/m² | - |
| 1777725023 | 2.78° C | 1% | 1022.3 hPa | 0 mm | - | 38 W/m² | - |
| 1777724720 | 2.78° C | 1% | 1022 hPa | 0 mm | - | 35 W/m² | - |
| 1777724417 | 2.22° C | 1% | 1022.3 hPa | 0 mm | - | 33 W/m² | - |
| 1777724114 | 2.22° C | 1% | 1022.4 hPa | 0 mm | - | 31 W/m² | - |
* Rain latest hour (hover to see other rain measurements)
** Current wind speed in m/s (hover to see current wind gust speed)